Regional Weather Roundup
Issued by NWS Jackson, KY

Home | Current Version | Previous Version | Graphics & Text | Print | Product List | Glossary On
Versions: 1 2 3 4 5 6 7 8 9 10 11 12 13 14 15 16 17 18 19 20 21 22 23 24 25 26 27 28 29 30 31 32 33 34 35 36 37 38 39 40 41 42 43 44 45 46 47 48 49 50
000
ASUS43 KJKL 271210
RWRJKL

EAST KENTUCKY HOURLY WEATHER ROUNDUP
NATIONAL WEATHER SERVICE JACKSON KY
800 AM EDT TUE JUN 27 2017

NOTE: "FAIR" INDICATES FEW OR NO CLOUDS BELOW 12,000 FEET WITH
NO SIGNIFICANT WEATHER AND/OR OBSTRUCTIONS TO VISIBILITY.

* THESE REPORTS ARE NOT UNDER NWS QUALITY CONTROL AND MAY NOT
  REPORT WEATHER SUCH AS PRECIPITATION AND FOG.

KYZ079-080-083-085-087-088-110-112-115-119-120-271300
...EASTERN KENTUCKY...

CITY           SKY/WX    TMP DP  RH WIND       PRES   REMARKS
JACKSON        MOSUNNY   60  52  74 NW5       30.16R
6HR MIN TEMP:  56; 6HR MAX TEMP:  62;

LONDON         SUNNY     60  53  77 NE3       30.16R
6HR MIN TEMP:  55; 6HR MAX TEMP:  60;

SOMERSET*      SUNNY     59  54  82 CALM      30.17R
MONTICELLO*    SUNNY     60  57  89 N12       30.17S
6HR MIN TEMP:  53; 6HR MAX TEMP:  60;

WILLIAMSBURG*  PTSUNNY   55  55 100 CALM      30.16R VSB 3/4
MIDDLESBORO*   MOSUNNY   57  55  92 CALM      30.17R
6HR MIN TEMP:  53; 6HR MAX TEMP:  58;

HARLAN APT*    CLOUDY    54  52  94 CALM      30.17R
PIKE CO APT*     N/A     59  54  85 CALM      30.15S
BIG SANDY APT* MOSUNNY   60  55  82 CALM      30.15S
6HR MIN TEMP:  55; 6HR MAX TEMP:  62;

MOREHEAD APT*  SUNNY     61  55  82 CALM      30.16R HAZE
ASHLAND*       SUNNY     61  55  82 CALM      30.11R
$$

KYZ035-036-041-042-044-050-067-078-099-271300
...CENTRAL KENTUCKY...

CITY           SKY/WX    TMP DP  RH WIND       PRES   REMARKS
MT STERLING*   SUNNY     59  55  88 CALM      30.17R
FLEMING/MASON* SUNNY     57  52  81 NW7       30.16R
DANVILLE*      MOSUNNY   57  52  82 CALM      30.16R
LEXINGTON      SUNNY     59  54  83 CALM      30.15R
6HR MIN TEMP:  55; 6HR MAX TEMP:  64; 6HR PCP:  0.04;

FRANKFORT      SUNNY     60  55  83 CALM      30.14R
6HR MIN TEMP:  54; 6HR MAX TEMP:  63; 6HR PCP:  0.06;

LOUISVILLE     SUNNY     63  58  83 W3        30.15R
6HR MIN TEMP:  60; 6HR MAX TEMP:  67; 6HR PCP:  0.12;

LEBANON*         N/A    N/A N/A N/A MISG        N/A
GLASGOW*       SUNNY     62  54  74 NE5       30.15R
BOWLING GREEN  SUNNY     63  56  78 NE5       30.15R
6HR MIN TEMP:  58; 6HR MAX TEMP:  65;

$$

KYZ091>093-OHZ055-061-077-WVZ005-015-034-035-042-271300
...SOUTHERN OHIO/WEST VIRGINIA...

CITY           SKY/WX    TMP DP  RH WIND       PRES   REMARKS
COVINGTON      SUNNY     57  52  83 W6        30.14R
COLUMBUS       MOSUNNY   57  52  83 W7        30.10R
DAYTON         SUNNY     56  51  84 W6        30.14R
WILMINGTON     SUNNY     57  53  86 W5        30.13R
HUNTINGTON     PTSUNNY   63  53  70 NW5       30.12S
CHARLESTON     MOSUNNY   62  54  74 SW3       30.12R
PINEVILLE*     SUNNY     52  51  97 MISG      30.20S
BECKLEY        MOSUNNY   58  47  66 CALM      30.16R
BLUEFIELD      SUNNY     53  48  83 SW7       30.17R
LOGAN CO APT*    N/A     57  54  88 CALM      30.14R
$$

VAZ002-007-008-TNZ017-027-036-066-071-271300
...SOUTHWEST VIRGINIA/EAST TENNESSEE...

CITY           SKY/WX    TMP DP  RH WIND       PRES   REMARKS
WISE*          SUNNY     59  46  63 CALM      30.20R
JONESVILLE*      N/A     55  54  94 CALM      30.17S
ABINGDON*      SUNNY     61  58  87 CALM      30.16R
BRISTOL        MOSUNNY   62  59  90 CALM      30.14R
MORRISTOWN*    SUNNY     64  57  77 CALM      30.13R
SEVIERVILLE*   SUNNY     61  55  82 CALM      30.13R
KNOXVILLE      PTSUNNY   63  59  87 CALM      30.11F
LAFOLLETTE*    SUNNY     59  57  94 CALM      30.17S
OAK RIDGE      MOSUNNY   60  56  86 CALM      30.14R
CROSSVILLE     CLOUDY    58  55  90 CALM      30.17R
NASHVILLE      PTSUNNY   66  58  75 CALM      30.14R
$$

...KEY TO REMARKS...
VSB - VISIBILITY IN MILES
WCI - WIND CHILL INDEX
HX  - HEAT INDEX

$$



USA.gov is the U.S. government's official web portal to all federal, state and local government web resources and services.